Location: Bruderhein
(53.8035°N, 112.9265°W)
Time: 12:32:17
(UTC+00:00)

deb Delta 139 - Pass Details

Date: 10 December 2023
Orbit: 731 x 794 km, 98.6° (Epoch: 01 March)

Event Time Altitude Azimuth Distance (km) Brightness Sun altitude
Rises 14:12:16 0° 19° (NNE) 3,187 ? -11.6°
Reaches altitude 10° 14:14:41 10° 26° (NNE) 2,254 ? -11.3°
Maximum altitude 14:19:24 45° 99° (E) 1,005 ? -10.7°
Drops below altitude 10° 14:24:05 10° 172° (S) 2,228 ? -10.0°
Sets 14:26:26 0° 178° (S) 3,147 ? -9.7°
